Location: Presov
(49.0000°N, 21.2500°E)
Time: 08:21:45
(UTC+02:00)

ISS - Pass Details

Date: 29 March 2019
Orbit: 408 x 410 km, 51.6° (Epoch: 21 April)

Event Time Altitude Azimuth Distance (km) Brightness Sun altitude
Rises 18:28:58 0° 262° (W) 2,334 1.7 -5.4°
Reaches altitude 10° 18:31:04 10° 266° (W) 1,474 0.5 -5.7°
Maximum altitude 18:34:21 62° 348° (NNW) 465 -3.4 -6.2°
Drops below altitude 10° 18:37:38 10° 70° (ENE) 1,475 -1.5 -6.8°
Enters shadow 18:38:24 - 72° (ENE) 1,787 -1.1 -6.9°
